Home > Time Zones > World Clock > Weather > India > Tonk > Past weeks

Flag for India Weather past 2 weeks in Tonk, Rajasthan, India

Now
75 °F

Passing clouds.


Feels Like: 78 °F
Forecast: 72 / 92 °F
Wind: 1 mph from North

Location: Jaipur / Sanganer

Current Time: Oct 25, 2014 at 11:26:12 PM

Latest Report: Oct 25, 2014 at 10:00 PM


Visibility: 2 mi

Pressure: 29.98 "Hg

Humidity: 47%

Dew point: 54 °F

Location of TonkLocation

Historic Weather in Tonk — Graph

°F

Tonk temperature yesterday

Maximum temperature yesterday: 93 °F (at 2:00 PM)
Minimum temperature yesterday: 75 °F (at 6:00 AM)
Average temperature yesterday: 83 °F

Past Weeks' High & Low Weather Summary

 TemperatureHumidityPressure
High95 °F (Oct 11, 1:00 PM)94% (Oct 16, 5:00 AM)30.12 "Hg (Oct 16, 5:00 AM)
Low64 °F (Oct 18, 6:00 AM)13% (Oct 11, 4:00 PM)29.65 "Hg (Oct 11, 3:00 PM)
Average80 °F46%29.95 "Hg
* Reported Oct 10 10:00 PM — Oct 25 10:00 PM, Tonk, Weather by CustomWeather, © 2014

Note: Actual official high and low records may vary slightly from our data, if they occured in-between our weather recording intervals... More about our weather records

Advertising

Tonk weather history for previous 24 hours

 ConditionsComfort  
Time TempWeatherWind HumidityBarometerVisibility
10:00 PM
Oct 25
75 °FPassing clouds.1 mph47%29.98 "Hg2 mi
9:00 PM77 °FThunderstorms. Passing clouds.6 mph44%29.98 "Hg2 mi
8:00 PM77 °FThunderstorms. Passing clouds.9 mph44%29.95 "Hg2 mi
7:30 PM79 °FThunderstorms. Passing clouds.8 mph39%29.95 "Hg2 mi
7:00 PM75 °FThunderstorms. Passing clouds.18 mph54%29.92 "Hg2 mi
6:00 PM82 °FPartly sunny.14 mph32%29.92 "Hg2 mi
5:30 PM86 °FScattered clouds.8 mph27%29.89 "Hg2 mi
4:30 PM90 °FScattered clouds.6 mph26%29.86 "Hg2 mi
4:00 PM91 °FScattered clouds.6 mph24%29.86 "Hg2 mi
3:00 PM93 °FScattered clouds.6 mph24%29.86 "Hg2 mi
2:00 PM91 °FHaze.5 mph26%29.89 "Hg2 mi
1:00 PM91 °FHaze.3 mph26%29.92 "Hg2 mi
12:00 PM88 °FScattered clouds.5 mph29%29.95 "Hg2 mi
11:00 AM86 °FBroken clouds.5 mph31%29.98 "Hg2 mi
10:00 AM82 °FBroken clouds.5 mph35%29.98 "Hg2 mi
9:00 AM81 °FBroken clouds.9 mph37%29.98 "Hg1 mi
8:00 AM79 °FBroken clouds.6 mph42%29.98 "Hg1 mi
7:30 AM79 °FBroken clouds.8 mph42%29.98 "Hg1 mi
7:00 AM77 °FPassing clouds.3 mph44%29.95 "Hg1 mi
6:00 AM77 °FPassing clouds.9 mph47%29.95 "Hg1 mi
5:00 AM77 °FPassing clouds.8 mph44%29.92 "Hg1 mi
3:00 AM77 °FPartly cloudy.5 mph44%29.92 "Hg1 mi
2:00 AM77 °FPartly cloudy.5 mph44%29.92 "Hg1 mi
1:00 AM77 °FPartly cloudy.3 mph44%29.92 "Hg1 mi
12:00 AM79 °FPartly cloudy.3 mph42%29.92 "Hg1 mi
11:00 PM
Oct 24
79 °FPartly cloudy.3 mph42%29.95 "Hg1 mi
Weather by CustomWeather, © 2014

See weather overviewHow to use our weather pages